Cloud_Cover
0 0 1 38 15 4 22 14 5 34 40 33 21 0 0 0 0 0 0 0 0 0 0 0 0 0 0 4 62 76 61 6 61 82 88 78 100 100 95 96 82 30 100 98 0
9 21 22 100 32 34 29 28 36 24 35 35 28 8 0 0 0 0 0 0 0 0 0 0 0 0 0 2 29 72 88 6 13 5 5 19 99 100 100 100 85 100 92 3 0
100 100 100 100 100 100 98 100 100 98 35 25 26 0 0 0 0 0 0 0 0 0 0 0 2 2 2 6 11 8 4 2 0 0 0 1 4 100 100 100 100 99 9 0 0
100 100 100 100 100 100 100 100 99 63 23 30 23 0 0 0 0 0 0 0 0 0 0 0 5 0 5 50 6 2 0 1 4 0 3 23 28 5 100 100 100 63 0 0 0
100 100 100 100 100 100 100 56 77 99 28 23 3 1 0 0 0 0 0 0 0 0 0 0 4 5 82 75 20 62 70 49 60 5 92 8 56 5 86 100 99 0 0 0 0
100 100 94 30 65 100 100 68 51 27 26 7 6 0 0 0 0 0 0 0 0 0 0 0 4 5 6 93 18 2 0 0 2 44 47 2 0 1 52 57 3 83 2 0 0
0 5 0 0 0 5 24 14 26 12 0 0 0 0 0 0 0 0 0 0 0 0 0 0 3 0 5 10 22 11 0 0 25 93 5 2 3 79 12 100 100 100 99 72 0
0 0 0 0 0 0 0 1 0 0 0 0 0 0 0 0 0 0 0 0 0 0 0 0 0 0 0 5 1 0 0 16 72 89 4 0 0 12 2 96 96 100 100 100 100
0 0 0 0 0 0 0 0 0 0 0 1 0 0 0 0 0 0 0 0 0 0 0 0 0 0 0 0 0 9 72 82 63 45 11 5 0 91 19 5 96 100 100 100 100
0 0 0 0 0 0 5 0 0 0 0 0 0 0 0 0 0 0 0 0 0 0 0 0 0 0 0 0 0 5 94 8 4 5 74 22 0 0 3 4 35 100 100 100 30
0 0 0 0 0 11 5 0 0 0 0 0 0 0 0 0 0 0 0 0 0 0 0 0 0 0 0 0 8 78 68 86 52 45 4 0 0 5 51 5 51 55 100 68 100
0 0 0 0 2 0 37 0 0 0 0 0 0 0 0 0 0 0 0 0 0 0 0 0 0 0 0 4 98 36 11 34 97 6 2 5 0 100 85 54 5 100 100 100 41
0 0 6 75 2 0 0 0 0 0 0 0 0 0 0 0 0 0 0 0 0 0 0 0 0 0 0 9 74 71 24 92 37 82 80 96 0 51 78 3 3 90 100 100 100
0 0 90 100 0 0 0 0 0 0 0 0 0 0 0 0 0 0 0 0 0 0 0 0 0 0 0 2 60 66 62 100 85 28 60 12 25 94 22 95 7 100 84 100 100
0 1 100 95 1 0 0 0 0 0 0 0 0 0 0 0 0 0 0 0 0 0 0 0 0 0 0 0 20 3 100 100 19 100 68 22 84 80 52 32 40 26 0 94 100
0 0 28 0 13 0 0 0 0 0 0 0 0 0 0 0 0 0 0 0 0 0 0 0 0 0 0 2 52 52 100 6 91 61 32 1 80 55 5 84 29 5 2 100 100
0 0 93 12 0 0 0 0 0 0 0 0 0 0 0 0 0 0 0 0 0 0 0 0 0 0 0 0 19 100 63 70 100 22 4 5 5 94 98 84 11 1 0 70 90
0 28 0 0 0 0 0 0 0 0 0 0 0 0 0 0 0 0 0 0 0 0 0 0 0 0 0 0 0 6 33 16 84 100 73 6 18 41 90 73 8 0 0 0 0
29 0 0 0 0 0 0 0 0 0 0 1 3 0 0 0 0 0 0 0 0 0 0 0 0 0 0 0 0 0 0 12 100 34 49 100 100 100 12 88 53 5 0 1 0
100 0 0 0 0 0 0 0 0 0 0 0 3 1 0 0 0 0 0 0 0 0 0 0 0 2 2 0 0 0 5 12 99 55 85 100 30 33 94 63 97 5 0 0 0
48 0 0 0 0 0 0 0 0 0 0 0 0 0 1 6 18 0 0 0 0 0 0 0 0 0 20 10 0 0 0 88 70 18 38 84 21 71 83 41 93 98 4 0 0
0 0 0 0 0 0 0 0 0 0 0 0 0 0 0 0 9 41 0 0 0 0 0 0 0 0 0 22 0 0 0 100 100 98 64 100 19 87 48 100 98 62 96 71 95
0 0 0 0 0 0 0 0 0 0 0 0 0 0 0 0 1 0 5 0 0 0 0 0 0 0 4 17 6 6 10 4 100 89 100 100 33 38 100 94 97 100 100 98 100
0 1 8 0 0 0 0 0 0 0 0 5 2 0 0 0 0 0 0 0 0 0 0 0 0 0 0 0 97 100 2 0 93 100 100 95 97 5 33 81 92 100 98 44 100
0 6 92 68 4 0 0 2 5 5 5 1 0 0 2 0 0 1 0 2 0 0 0 0 0 0 0 2 56 46 1 0 0 56 73 38 4 99 50 100 99 7 94 74 89
0 1 0 0 23 3 2 5 10 29 87 14 0 0 0 2 0 0 5 5 0 1 41 0 0 0 0 0 23 100 100 100 100 100 5 96 100 6 17 100 86 97 100 100 52
56 0 0 0 52 4 28 4 5 92 26 19 50 2 24 7 3 0 0 4 18 100 100 71 0 0 0 0 65 100 100 97 100 95 4 90 93 10 100 100 100 44 64 95 93